Regional Weather Roundup
Issued by NWS

Home | Current Version | Previous Version | Graphics & Text | Print | Product List | Glossary Off
Versions: 1 2 3 4 5 6 7 8 9 10 11 12 13 14 15 16 17 18 19 20 21 22 23 24 25 26 27 28 29 30 31 32 33 34 35 36 37 38 39 40 41 42 43 44 45 46 47 48 49 50

000
ASUS43 KTOP 210008
RWRKS

WEATHER ROUNDUP FOR KANSAS
NATIONAL WEATHER SERVICE GOODLAND KS
700 PM CDT MON APR 20 2015

NOTE:  "FAIR" INDICATES FEW OR NO CLOUDS BELOW 12,000 FEET WITH NO
SIGNIFICANT WEATHER AND/OR OBSTRUCTIONS TO VISIBILITY.

KSZ001>006-013>018-027>032-041>047-210100-
NORTHWEST KANSAS

CITY           SKY/WX    TMP DP  RH WIND       PRES   REMARKS
GOODLAND       SUNNY     57  29  34 NW9       29.88S
6HR MIN TEMP:  52; 6HR MAX TEMP:  59;

HAYS           PTSUNNY   61  25  25 NW12      29.88F
HILL CITY      CLOUDY    59  27  29 NW8       29.87F
6HR MIN TEMP:  56; 6HR MAX TEMP:  61;

RUSSELL        PTSUNNY   59  26  28 NW14      29.87S
6HR MIN TEMP:  58; 6HR MAX TEMP:  64;

$$

KSZ061>065-074>080-084>089-210100-
SOUTHWEST KANSAS

CITY           SKY/WX    TMP DP  RH WIND       PRES   REMARKS
DODGE CITY     SUNNY     61  27  27 W5        29.91F
6HR MIN TEMP:  56; 6HR MAX TEMP:  62;

ELKHART          N/A     63  32  31 S7          N/A
GARDEN CITY    SUNNY     59  27  29 W7        29.89F
6HR MIN TEMP:  53; 6HR MAX TEMP:  61;

GREAT BEND     PTSUNNY   59  34  38 NW6       29.89S
LIBERAL        SUNNY     63  28  27 E9        29.90F
PRATT          MOSUNNY   59  30  33 W9        29.92S
$$

KSZ066>073-081>083-090>101-210100-
SOUTHEAST KANSAS

CITY           SKY/WX    TMP DP  RH WIND       PRES   REMARKS
CHANUTE        PTSUNNY   58  32  37 NW10      29.90S
6HR MIN TEMP:  57; 6HR MAX TEMP:  61;

COFFEYVILLE    SUNNY     60  34  37 NW7       29.91F
6HR MIN TEMP:  59; 6HR MAX TEMP:  63;

HUTCHINSON     PTSUNNY   62  29  28 NW9       29.89S
6HR MIN TEMP:  59; 6HR MAX TEMP:  65;

MEDICINE LODGE   N/A     63  31  30 W12       29.91F
NEWTON         MOSUNNY   59  30  33 W10       29.90F
PARSONS        MOSUNNY   59  36  42 NW7       29.92S
6HR MIN TEMP:  58; 6HR MAX TEMP:  63;

WICHITA INTL   MOSUNNY   61  31  32 NW9       29.90S
6HR MIN TEMP:  59; 6HR MAX TEMP:  64;

WICHITA JABRA  MOSUNNY   60  29  30 W12       29.89F
6HR MIN TEMP:  57; 6HR MAX TEMP:  63;

WICHITA MCCONL MOSUNNY   62  30  30 W8        29.90S
WINFIELD       SUNNY     60  35  39 W10       29.92F
6HR MIN TEMP:  59; 6HR MAX TEMP:  64;

$$

KSZ007>012-019>026-033>040-048>060-102>105-210100-
NORTHEAST KANSAS

CITY           SKY/WX    TMP DP  RH WIND       PRES   REMARKS
CONCORDIA      MOSUNNY   58  24  27 NW15G22   29.85S
6HR MIN TEMP:  55; 6HR MAX TEMP:  61;

EMPORIA        PTSUNNY   59  27  29 NW9       29.87S
6HR MIN TEMP:  56; 6HR MAX TEMP:  61;

LAWRENCE       PTSUNNY   58  25  28 NW17      29.85S
6HR MIN TEMP:  57; 6HR MAX TEMP:  60;

MANHATTAN      SUNNY     60  23  24 NW12G17   29.85F HAZE
6HR MIN TEMP:  57; 6HR MAX TEMP:  63;

MARYSVILLE     CLOUDY    57  27  30 NW15G21   29.83R
OLATHE IND     MOSUNNY   56  26  31 W15       29.86R
6HR MIN TEMP:  54; 6HR MAX TEMP:  59;

OLATHE EXE     PTSUNNY   56  24  29 NW12G21   29.84S
6HR MIN TEMP:  55; 6HR MAX TEMP:  59;

SALINA         PTSUNNY   60  29  30 NW10      29.87F
6HR MIN TEMP:  58; 6HR MAX TEMP:  64;

TOPEKA BILLARD CLOUDY    58  26  29 NW8       29.85S
6HR MIN TEMP:  56; 6HR MAX TEMP:  61;

TOPEKA FORBES  MOSUNNY   58  27  30 NW12      29.85S
6HR MIN TEMP:  57; 6HR MAX TEMP:  61;

$$


USA.gov is the U.S. government's official web portal to all federal, state and local government web resources and services.